Regional Weather Roundup
Issued by NWS Glasgow, MT

Home | Current Version | Previous Version | Text Only | Print | Product List | Glossary On
Versions: 1 2 3 4 5 6 7 8 9 10 11 12 13 14 15 16 17 18 19 20 21 22 23 24 25 26 27 28 29 30 31 32 33 34 35 36 37 38 39 40 41 42 43 44 45 46 47 48 49 50
528
ASUS45 KGGW 171415
RWRGGW
HOURLY REGIONAL WEATHER ROUNDUP FOR NORTHEAST MONTANA
NATIONAL WEATHER SERVICE GLASGOW MONTANA
700 AM MST SUN DEC 17 2017

NOTE: "FAIR" INDICATES FEW OR NO CLOUDS BELOW 12,000 FEET WITH NO
SIGNIFICANT WEATHER AND/OR OBSTRUCTIONS TO VISISBILITY.

NORTHEAST MONTANA


CITY           SKY/WX    TMP DP  RH WIND       PRES   REMARKS
GLASGOW        CLEAR     18  16  92 SE10      29.85F
PLENTYWOOD       N/A     16  15  96 SE3         N/A
WOLF POINT     CLEAR      9   4  80 CALM      29.91F
JORDAN           N/A     23  20  88 SW18      29.86F
WINNETT          N/A     11   9  92 S3          N/A
SIDNEY         CLEAR     18  15  88 SW9       29.95F
GLENDIVE       CLEAR     19  16  88 S5        29.94F
MALTA            N/A     21  19  92 SW6G14      N/A
SCOBEY           N/A     15   6  67 S5        29.83F

FORT PECK REPORTS


CITY           SKY/WX    TMP DP  RH WIND       PRES   REMARKS
FORT PECK        N/A     28  27  96 SE16        N/A
THE PINES        N/A     29  24  82 SW9         N/A

SOUTHEAST MONTANA


CITY           SKY/WX    TMP DP  RH WIND       PRES   REMARKS
BILLINGS       CLOUDY    21  20  96 SW10      29.90S
MILES CITY     CLEAR     21  21 100 S8        29.93F
BAKER          CLEAR     18  16  92 CALM      29.96F
LIVINGSTON     CLOUDY    23  14  68 W30G40    29.93S

CENTRAL MONTANA


CITY           SKY/WX    TMP DP  RH WIND       PRES   REMARKS
HAVRE          CLOUDY    26  18  71 SW20G29   29.77F
LEWISTOWN      CLOUDY    20  10  65 SW12      29.80F
GREAT FALLS    CLOUDY    28  13  53 SW26G38   29.81S
CUT BANK       CLOUDY    30  19  63 W29G36    29.72S
HELENA         CLOUDY    29  12  49 W14       30.02R
BUTTE          CLOUDY     2  -2  83 CALM      30.03S
BOZEMAN        CLOUDY     1  -2  87 S7        30.05S

WESTERN MONTANA


CITY           SKY/WX    TMP DP  RH WIND       PRES   REMARKS
MISSOULA       CLOUDY    18  16  92 CALM      30.18S
KALISPELL      NOT AVBL

NORTH DAKOTA


CITY           SKY/WX    TMP DP  RH WIND       PRES   REMARKS
WILLISTON      CLEAR     15  13  91 S3        29.95S
DICKINSON      CLEAR     15  12  88 S8        29.94F
MINOT          CLEAR     21  16  81 SW12      29.94F
BISMARCK       CLEAR     17  16  95 CALM      30.03S

SOUTHERN SASKATCHEWAN


CITY           SKY/WX    TMP DP  RH WIND       PRES   REMARKS
REGINA         MOCLDY    19  16  86 S10       29.78F
ESTEVAN        PTCLDY    16  12  86 S8        29.89F
SWIFT CURRENT  CLOUDY    23  16  74 S16G22    29.66F





USA.gov is the U.S. government's official web portal to all federal, state and local government web resources and services.